Marshfield, MA

2:22 PM EST on November 20, 2019 (GMT -0500)
Marshfield

Weather History for KGHG - July, 2019

Change the Weather History Date:

Tuesday, July 16, 2019

  Actual Average (WUND) Record (WUND)
Temperature  
Mean Temperature 74 °F -  
Max Temperature 87 °F - - (-1)
Min Temperature 62 °F - - (-1)
Cooling Degree Days 10    
Growing Degree Days 24 (Base 50)    
Moisture  
Dew Point 63 °F    
Average Humidity 66    
Maximum Humidity 94    
Minimum Humidity 40    
Precipitation  
Precipitation 0.00 in - - ()
Sea Level Pressure  
Sea Level Pressure 30.02 in    
Wind  
Wind Speed 4 mph (SW)    
Max Wind Speed 12 mph    
Max Gust Speed 17 mph    
Visibility 10 miles    
Events      
Averages and records for this station are not official NWS values.
T = Trace of Precipitation, MM = Missing Value Source: NWS Daily Summary

Daily Weather History Graph

Daily Weather History Graph

Search for Another Location

Airport or City:

Astronomy

Jul. 16, 2019 Rise Set
Actual Time 5:20 AM EDT 8:16 PM EDT
Civil Twilight 4:47 AM EDT 8:49 PM EDT
Nautical Twilight 4:05 AM EDT 9:31 PM EDT
Astronomical Twilight 3:15 AM EDT 10:20 PM EDT
Moon 8:20 PM EDT (7/16) 4:55 AM EDT (7/16)
Length of Visible Light 16h 02m
Length of Day
14h 55m
Full, 100% of the Moon is Illuminated
Jul 16
Full
Jul 16
Full
Jul 24
Last Quarter
Jul 31
New
Aug 7
First Quarter

Hourly Weather History & Observations

Time (EDT) Temp. Heat Index Dew Point Humidity Pressure Visibility Wind Dir Wind Speed Gust Speed Precip Events Conditions
12:15 AM 66.2 °F - 62.6 °F 88% 30.03 in 10.0 mi West 3.5 mph - N/A   Clear
12:35 AM 66.2 °F - 62.6 °F 88% 30.03 in 10.0 mi Calm Calm - N/A   Clear
12:55 AM 66.2 °F - 62.6 °F 88% 30.03 in 10.0 mi Calm Calm - N/A   Clear
1:15 AM 66.2 °F - 62.6 °F 88% 30.03 in 10.0 mi Calm Calm - N/A   Clear
1:35 AM 66.2 °F - 62.6 °F 88% 30.03 in 10.0 mi WSW 4.6 mph - N/A   Clear
1:55 AM 66.2 °F - 62.6 °F 88% 30.03 in 10.0 mi West 3.5 mph - N/A   Clear
2:15 AM 64.4 °F - 62.6 °F 94% 30.03 in 10.0 mi West 4.6 mph - N/A   Clear
2:35 AM 64.4 °F - 62.6 °F 94% 30.04 in 10.0 mi Variable 4.6 mph - N/A   Clear
2:55 AM 64.4 °F - 60.8 °F 88% 30.02 in 10.0 mi WSW 3.5 mph - N/A   Clear
3:15 AM 64.4 °F - 60.8 °F 88% 30.03 in 10.0 mi Variable 3.5 mph - N/A   Clear
3:35 AM 62.6 °F - 60.8 °F 94% 30.03 in 10.0 mi West 4.6 mph - N/A   Clear
3:55 AM 64.4 °F - 60.8 °F 88% 30.03 in 10.0 mi Calm Calm - N/A   Clear
4:15 AM 62.6 °F - 60.8 °F 94% 30.03 in 10.0 mi West 4.6 mph - N/A   Clear
4:35 AM 62.6 °F - 60.8 °F 94% 30.03 in 10.0 mi West 4.6 mph - N/A   Clear
4:55 AM 62.6 °F - 60.8 °F 94% 30.03 in 10.0 mi West 5.8 mph - N/A   Clear
5:15 AM 62.6 °F - 60.8 °F 94% 30.04 in 10.0 mi West 4.6 mph - N/A   Clear
5:35 AM 62.6 °F - 60.8 °F 94% 30.04 in 10.0 mi Calm Calm - N/A   Clear
5:55 AM 62.6 °F - 60.8 °F 94% 30.05 in 10.0 mi Calm Calm - N/A   Clear
6:15 AM 62.6 °F - 60.8 °F 94% 30.05 in 10.0 mi Calm Calm - N/A   Clear
6:35 AM 64.4 °F - 60.8 °F 88% 30.05 in 10.0 mi Calm Calm - N/A   Clear
6:55 AM 66.2 °F - 62.6 °F 88% 30.06 in 10.0 mi Calm Calm - N/A   Clear
7:15 AM 68.0 °F - 62.6 °F 83% 30.06 in 10.0 mi Calm Calm - N/A   Clear
7:35 AM 71.6 °F - 62.6 °F 73% 30.07 in 10.0 mi Calm Calm - N/A   Clear
7:55 AM 73.4 °F - 62.6 °F 69% 30.07 in 10.0 mi Calm Calm - N/A   Clear
8:15 AM 75.2 °F - 62.6 °F 65% 30.07 in 10.0 mi Calm Calm - N/A   Clear
8:35 AM 77.0 °F - 60.8 °F 57% 30.07 in 10.0 mi Calm Calm - N/A   Clear
8:55 AM 77.0 °F - 60.8 °F 57% 30.07 in 10.0 mi Calm Calm - N/A   Clear
9:15 AM 78.8 °F - 60.8 °F 54% 30.07 in 10.0 mi Calm Calm - N/A   Clear
9:35 AM 78.8 °F - 60.8 °F 54% 30.07 in 10.0 mi ENE 3.5 mph - N/A   Clear
9:55 AM 80.6 °F 81.5 °F 60.8 °F 51% 30.06 in 10.0 mi NE 3.5 mph - N/A   Clear
10:15 AM 78.8 °F - 60.8 °F 54% 30.06 in 10.0 mi ENE 5.8 mph - N/A   Clear
10:35 AM 80.6 °F 81.8 °F 62.6 °F 54% 30.06 in 10.0 mi Calm Calm - N/A   Clear
10:55 AM 82.4 °F 82.9 °F 60.8 °F 48% 30.05 in 10.0 mi Variable 4.6 mph - N/A   Clear
11:15 AM 82.4 °F 82.5 °F 59.0 °F 45% 30.05 in 10.0 mi Variable 6.9 mph 12.7 mph N/A   Clear
11:35 AM 82.4 °F 82.5 °F 59.0 °F 45% 30.05 in 10.0 mi Variable 5.8 mph - N/A   Clear
11:55 AM 84.2 °F 83.8 °F 59.0 °F 42% 30.04 in 10.0 mi Variable 6.9 mph 13.8 mph N/A   Clear
12:15 PM 84.2 °F 83.8 °F 59.0 °F 42% 30.04 in 10.0 mi Variable 4.6 mph 13.8 mph N/A   Clear
12:35 PM 84.2 °F 83.8 °F 59.0 °F 42% 30.04 in 10.0 mi SSW 9.2 mph - N/A   Clear
12:55 PM 84.2 °F 84.4 °F 60.8 °F 45% 30.03 in 10.0 mi SW 9.2 mph - N/A   Clear
1:15 PM 84.2 °F 84.4 °F 60.8 °F 45% 30.02 in 10.0 mi Variable 5.8 mph 12.7 mph N/A   Clear
1:35 PM 86.0 °F 86.1 °F 60.8 °F 43% 30.02 in 10.0 mi SSW 9.2 mph - N/A   Clear
1:55 PM 86.0 °F 86.1 °F 60.8 °F 43% 30.01 in 10.0 mi SSW 9.2 mph - N/A   Clear
2:15 PM 86.0 °F 86.1 °F 60.8 °F 43% 30.01 in 10.0 mi Variable 5.8 mph 12.7 mph N/A   Clear
2:35 PM 86.0 °F 86.1 °F 60.8 °F 43% 30.00 in 10.0 mi Variable 5.8 mph - N/A   Clear
2:55 PM 86.0 °F 85.4 °F 59.0 °F 40% 30.00 in 10.0 mi Variable 4.6 mph 13.8 mph N/A   Clear
3:15 PM 86.0 °F 86.1 °F 60.8 °F 43% 30.00 in 10.0 mi Variable 4.6 mph 11.5 mph N/A   Clear
3:35 PM 86.0 °F 86.6 °F 62.6 °F 45% 30.00 in 10.0 mi SW 8.1 mph - N/A   Clear
3:55 PM 87.8 °F 88.5 °F 62.6 °F 43% 29.99 in 10.0 mi SSW 6.9 mph 12.7 mph N/A   Clear
4:15 PM 86.0 °F 86.6 °F 62.6 °F 45% 29.99 in 10.0 mi Variable 3.5 mph 11.5 mph N/A   Clear
4:35 PM 86.0 °F 87.3 °F 64.4 °F 48% 29.98 in 10.0 mi WSW 8.1 mph - N/A   Clear
4:55 PM 86.0 °F 87.3 °F 64.4 °F 48% 29.98 in 10.0 mi WSW 8.1 mph 17.3 mph N/A   Clear
5:15 PM 86.0 °F 87.3 °F 64.4 °F 48% 29.98 in 10.0 mi SW 8.1 mph - N/A   Clear
5:35 PM 84.2 °F 85.6 °F 64.4 °F 51% 29.98 in 10.0 mi SW 8.1 mph 15.0 mph N/A   Clear
5:55 PM 84.2 °F 85.6 °F 64.4 °F 51% 29.97 in 10.0 mi SSW 11.5 mph - N/A   Clear
6:15 PM 84.2 °F 85.6 °F 64.4 °F 51% 29.97 in 10.0 mi SW 9.2 mph - N/A   Clear
6:35 PM 82.4 °F 83.9 °F 64.4 °F 54% 29.97 in 10.0 mi SW 6.9 mph 15.0 mph N/A   Clear
6:55 PM 80.6 °F 82.3 °F 64.4 °F 58% 29.97 in 10.0 mi SSW 6.9 mph 15.0 mph N/A   Clear
7:15 PM 80.6 °F 82.3 °F 64.4 °F 58% 29.97 in 10.0 mi SSW 6.9 mph 12.7 mph N/A   Clear
7:35 PM 80.6 °F 82.7 °F 66.2 °F 61% 29.96 in 10.0 mi SSW 6.9 mph - N/A   Clear
7:55 PM 78.8 °F - 66.2 °F 65% 29.97 in 10.0 mi SSW 10.4 mph - N/A   Clear
8:15 PM 78.8 °F - 66.2 °F 65% 29.97 in 10.0 mi SW 6.9 mph - N/A   Clear
8:35 PM 78.8 °F - 68.0 °F 69% 29.97 in 10.0 mi SW 6.9 mph - N/A   Clear
8:55 PM 78.8 °F - 68.0 °F 69% 29.97 in 10.0 mi SW 8.1 mph - N/A   Clear
9:15 PM 78.8 °F - 68.0 °F 69% 29.98 in 10.0 mi SW 8.1 mph 13.8 mph N/A   Clear
9:35 PM 77.0 °F - 68.0 °F 74% 29.98 in 10.0 mi SW 8.1 mph 15.0 mph N/A   Clear
9:55 PM 77.0 °F - 68.0 °F 74% 29.98 in 10.0 mi SW 6.9 mph - N/A   Clear
10:15 PM 77.0 °F - 68.0 °F 74% 29.98 in 10.0 mi SW 6.9 mph - N/A   Clear
10:35 PM 77.0 °F - 68.0 °F 74% 29.98 in 10.0 mi SW 6.9 mph 15.0 mph N/A   Clear
10:55 PM 77.0 °F - 68.0 °F 74% 29.98 in 10.0 mi SW 8.1 mph - N/A   Clear
11:15 PM 77.0 °F - 68.0 °F 74% 29.97 in 10.0 mi SW 8.1 mph - N/A   Clear
11:35 PM 75.2 °F - 68.0 °F 78% 29.97 in 10.0 mi SW 6.9 mph 13.8 mph N/A   Clear
11:55 PM 75.2 °F - 68.0 °F 78% 29.97 in - SW 6.9 mph - N/A   Clear